Regional Weather Roundup
Issued by NWS

Home | Current Version | Previous Version | Graphics & Text | Print | Product List | Glossary On
Versions: 1 2 3 4 5 6 7 8 9 10 11 12 13 14 15 16 17 18 19 20 21 22 23 24 25 26 27 28 29 30 31 32 33 34 35 36 37 38 39 40 41 42 43 44 45 46 47 48 49 50
000
ASUS45 KABQ 161810
RWRNM
NEW MEXICO REGIONAL WEATHER ROUNDUP
NATIONAL WEATHER SERVICE ALBUQUERQUE NM
1200 PM MDT WED AUG 16 2017

NOTE: "FAIR" MEANS FEW OR NO CLOUDS BELOW 12,000 FEET AGL WITH NO
       SIGNIFICANT WEATHER OR OBSTRUCTIONS TO VISION.

      THIS PRODUCT IS RELEASED AS TWO VERSIONS.  ONE VERSION NEAR
      THE TOP OF THE HOUR CONTAINING PRELIMINARY DATA FROM ALBUQUERQUE
      AND OTHER STATIONS.  A FINAL VERSION WITH ADDITIONAL DATA IS
      ISSUED ABOUT 10 MINUTES AFTER THE HOUR.

NMZ501-503-504-510>518-161900-
NORTHWEST PLATEAU/NORTHCENTRAL MOUNTAINS

CITY           SKY/WX    TMP DP  RH WIND       PRES   REMARKS
FARMINGTON     FAIR      77  28  16 VRB7      30.16F
6HR MIN TEMP:  47; 6HR MAX TEMP:  78;

LOS ALAMOS     FAIR      71  32  23 SE7       30.28S
SANTA FE       FAIR      76  33  21 SW10G20   30.21S
6HR MIN TEMP:  53; 6HR MAX TEMP:  76;

TAOS           FAIR      73  34  23 S3        30.27F
ANGEL FIRE     FAIR      63  34  34 W7G20     30.33F

$$
NMZ402-403-502-505>509-161900-
WESTCENTRAL MOUNTAINS/SOUTHWEST MOUNTAINS

CITY           SKY/WX    TMP DP  RH WIND       PRES   REMARKS
GALLUP         FAIR      77  31  18 W15G26    30.25F
6HR MIN TEMP:  42; 6HR MAX TEMP:  77;

GRANTS         FAIR      76  27  16 NW9G20    30.26S
SILVER CITY    FAIR      79  44  29 SW3       30.22S

$$
NMZ407-409-411-412-161900-
SOUTHERN DESERTS

CITY           SKY/WX    TMP DP  RH WIND       PRES   REMARKS
DEMING         FAIR      85  47  26 VRB3      30.14S
6HR MIN TEMP:  60; 6HR MAX TEMP:  86;

LAS CRUCES     FAIR      85  43  22 NW5       30.14S
HOLLOMAN AFB   FAIR      91  45  19 NW8       30.11S
ALAMOGORDO     FAIR      86  45  23 N13       30.11S
T OR C         FAIR      85  43  22 VRB5      30.14F
6HR MIN TEMP:  67; 6HR MAX TEMP:  85;


$$
NMZ519>523-161900-
CENTRAL VALLEYS/CENTRAL HIGHLANDS

CITY           SKY/WX    TMP DP  RH WIND       PRES   REMARKS
ALBUQUERQUE    FAIR      79  36  21 CALM      30.17F
6HR MIN TEMP:  59; 6HR MAX TEMP:  80;

DOUBLE EAGLE   MOSUNNY   79  37  22 NW12      30.20F
MORIARTY ARPT  FAIR      80  33  18 W14G20    30.22S
6HR MIN TEMP:  46; 6HR MAX TEMP:  81;

CLINES CORNERS FAIR      75  34  22 W9G26     30.25F
6HR MIN TEMP:  49; 6HR MAX TEMP:  75;

BELEN          FAIR      80  34  19 SW7       30.16F
6HR MIN TEMP:  57; 6HR MAX TEMP:  82;

SOCORRO        FAIR      85  38  19 E5        30.14F
6HR MIN TEMP:  60; 6HR MAX TEMP:  85;


$$
NMZ524>526-539-540-161900-
SOUTHCENTRAL MOUNTAINS

CITY           SKY/WX    TMP DP  RH WIND       PRES   REMARKS
RUIDOSO        FAIR      75  39  27 N9G16     30.29S

$$
NMZ527>531-161900-
NORTHEAST HIGHLANDS/NORTHEAST PLAINS

CITY           SKY/WX    TMP DP  RH WIND       PRES   REMARKS
LAS VEGAS      FAIR      73  37  27 E8        30.23S
6HR MIN TEMP:  52; 6HR MAX TEMP:  73;

RATON          FAIR      72  47  40 VRB3      30.18F
6HR MIN TEMP:  54; 6HR MAX TEMP:  73;

CLAYTON        FAIR      75  54  47 NE8       30.13S
6HR MIN TEMP:  58; 6HR MAX TEMP:  75;


$$
NMZ532>537-161900-
EASTCENTRAL PLAINS

CITY           SKY/WX    TMP DP  RH WIND       PRES   REMARKS
SANTA ROSA     FAIR      85  35  17 NW8G16    30.09S
TUCUMCARI      FAIR      84  49  29 N10       30.06S
6HR MIN TEMP:  60; 6HR MAX TEMP:  84;

CANNON AFB     FAIR      79  58  48 NE12      30.09S
6HR MIN TEMP:  64; 6HR MAX TEMP:  79;

CLOVIS AIRPORT NOT AVBL

$$
NMZ028-029-538-161900-
SOUTHEAST PLAINS

CITY           SKY/WX    TMP DP  RH WIND       PRES   REMARKS
ROSWELL        FAIR      92  43  18 NW8G20    30.02F
6HR MIN TEMP:  64; 6HR MAX TEMP:  93;

ARTESIA        FAIR      88  50  27 VRB6G14   30.04S
CARLSBAD       FAIR      89  52  28 N10       30.02R
6HR MIN TEMP:  67; 6HR MAX TEMP:  89;

HOBBS          SUNNY     90  54  29 N13       30.03S


$$




USA.gov is the U.S. government's official web portal to all federal, state and local government web resources and services.